User: anonymous
Location: Caltech
(34.1382°N, 118.1253°W)
Time: 15:09:13
(UTC-07:00)
Language:

Cosmos 2322 - Orbit

View from above orbital plane
View from above orbital plane
View from above satellite
View from above satellite

Ground track
Ground track

The orbit data is extracted from the following two-line orbital elements,

1 23704U 95058A   14112.10696034 -.00000164  00000-0 -61927-4 0  9960
2 23704 070.9841 298.2882 0008202 022.9492 113.4522 14.13237812953069
Epoch (UTC): 22 April 2014 02:34:01
Eccentricity: 0.0008202
inclination: 70.9841°
perigee height: 842 km
apogee height: 854 km
right ascension of ascending node: 298.2882°
argument of perigee: 22.9492°
revolutions per day: 14.13237812
mean anomaly at epoch: 113.4522°
orbit number at epoch: 95306

The dashed part of the orbit path shows where the satellite is in the earth's shadow,  

DLR